Lid_Strength_Index
8 9 11 10 10 11 10 11 12 12 11 10 10 10 9 8 8 8 7 6 6 6 5 5 5 5 4 1 1 1 1 0 0 1 2 1 1 1 0 -0 1 1 -0 0
9 11 9 10 11 11 11 12 12 12 11 11 11 11 9 8 8 7 7 7 6 6 6 6 6 6 5 5 2 1 1 0 0 1 1 1 1 0 -0 0 1 1 1 0
11 11 10 11 11 12 12 12 13 12 12 12 12 11 10 9 10 9 9 8 8 8 8 7 7 7 6 6 5 3 1 0 0 0 0 0 0 0 1 1 1 1 1 1
10 10 11 11 12 10 13 11 11 12 12 14 12 14 11 10 10 10 9 9 8 8 8 9 7 6 5 5 6 6 3 1 0 -0 1 1 2 2 1 1 0 0 0 1
11 11 11 11 11 10 12 11 11 12 12 12 13 14 12 12 11 10 9 9 8 8 8 7 7 7 6 5 5 6 6 3 1 0 0 1 1 1 0 0 1 0 0 0
10 9 9 10 11 10 10 11 11 12 12 15 13 13 13 12 11 10 9 9 8 8 8 7 7 7 6 5 4 3 6 6 2 0 0 1 1 1 2 1 1 1 0 1
11 11 10 9 11 10 11 11 15 16 16 16 15 15 12 11 11 10 10 9 7 7 7 7 7 6 6 6 5 5 3 3 3 2 0 1 1 1 1 1 1 1 1 2
14 15 11 10 10 11 11 11 14 18 18 16 16 16 13 11 10 10 10 9 8 7 7 7 7 7 7 6 6 5 5 4 2 1 1 1 1 1 1 1 1 1 1 1
14 15 11 10 10 9 12 13 11 16 19 15 14 13 11 11 10 10 9 8 8 8 8 8 7 7 7 6 6 6 5 5 5 3 1 3 3 2 2 2 3 3 3 4
12 15 13 12 10 10 11 10 14 13 18 17 16 16 13 12 10 10 9 9 8 8 8 8 8 8 7 7 7 6 6 6 5 5 5 4 4 4 3 3 2 2 2 2
11 12 14 12 13 13 14 13 13 12 13 16 17 15 11 11 10 10 9 9 9 9 8 8 8 8 8 8 7 7 7 7 6 6 5 5 5 5 5 5 4 4 4 4
12 12 15 14 13 12 13 13 12 14 16 15 16 14 11 12 10 9 9 9 9 8 8 8 8 8 9 9 9 9 9 9 8 7 7 7 7 7 6 6 6 5 5 5
10 12 16 14 13 12 13 13 13 13 13 15 16 14 11 11 10 9 9 9 8 8 9 9 9 9 9 9 9 9 10 9 9 9 9 9 9 9 8 8 8 7 7 7
9 12 13 15 14 12 13 13 12 12 14 14 14 13 12 11 10 9 9 8 8 9 9 9 9 10 10 11 11 10 11 10 10 10 10 10 11 11 10 10 10 9 9 9
10 14 14 13 13 13 13 13 13 13 12 14 13 13 11 11 10 9 8 9 10 11 11 10 10 10 11 11 11 11 11 11 11 11 11 11 11 11 11 11 11 11 11 11
11 15 14 16 14 14 15 14 13 13 13 13 13 14 11 9 9 10 10 10 11 11 11 11 11 11 11 11 11 11 11 11 11 11 12 12 12 12 12 12 12 12 12 11
12 14 15 16 15 15 16 15 14 13 12 13 14 12 10 11 10 9 9 9 10 10 10 11 11 11 11 11 11 11 12 12 12 12 13 13 13 13 13 13 12 12 12 12
13 14 15 18 16 20 13 13 11 12 11 11 11 10 9 9 9 8 8 8 9 10 10 10 10 10 10 10 11 11 11 11 12 12 13 13 13 13 13 13 13 13 12 13
11 13 16 17 17 15 14 14 12 13 12 10 10 9 9 10 10 11 9 8 9 10 10 10 10 10 10 10 11 11 11 11 12 13 13 13 14 14 14 14 13 13 13 13
12 11 13 18 18 20 15 13 11 11 15 11 9 9 9 10 11 9 10 10 10 10 10 10 10 10 10 11 11 12 12 12 13 13 13 13 13 14 14 13 14 13 13 14
15 14 16 17 17 15 13 13 11 16 13 14 10 9 10 10 9 9 10 11 10 10 10 10 10 11 12 12 12 12 12 13 14 14 14 14 14 14 14 14 14 14 14 14
14 15 15 15 16 19 13 12 13 11 12 11 10 10 10 10 11 11 11 11 11 11 11 11 12 12 13 13 13 13 13 14 14 14 14 14 15 14 13 14 14 13 13 14
15 12 13 12 13 13 12 11 10 10 10 11 10 10 10 10 11 11 11 10 10 11 12 13 13 13 13 13 14 13 13 14 14 15 15 14 14 14 13 13 13 12 11 12
14 13 12 11 12 12 11 10 10 9 9 10 9 9 9 10 10 10 10 11 11 12 12 13 12 13 13 14 14 15 14 15 17 16 15 14 14 13 13 12 11 11 11 11
12 13 13 13 13 11 10 9 8 9 9 10 10 10 9 9 10 10 11 11 12 13 14 14 14 14 15 15 16 17 18 19 19 18 17 15 14 14 14 13 12 12 11 11
12 13 13 12 10 9 9 8 9 10 10 10 10 11 11 9 10 11 11 12 14 15 16 16 17 17 18 19 19 20 22 22 22 20 17 16 17 15 15 14 12 10 10 10